POW28JD EGCC-EGLC

Flight info

Callsign POW28JD
Flight time N/A
Altitude 19000
Route SANBA N859 HON
Aircraft E190/M-SDE3GILORVW/S

Departure

Time 2026-05-01 14:08
Airport Manchester Airport (EGCC)

Arrival

Time N/A
Airport London City Airport (EGLC)
Time Latitude Longitude Altitude Speed Heading
2026-05-01 13:47 53.36211 -2.26477 253 ft 0 kts 321°
2026-05-01 13:54 53.36199 -2.26460 253 ft 3 kts 313°
2026-05-01 13:54 53.36187 -2.26435 253 ft 3 kts 290°
2026-05-01 13:54 53.36183 -2.26404 253 ft 3 kts 253°
2026-05-01 13:54 53.36189 -2.26383 254 ft 1 kts 232°
2026-05-01 13:55 53.36191 -2.26379 254 ft 0 kts 232°
2026-05-01 13:57 53.36187 -2.26388 254 ft 5 kts 233°
2026-05-01 13:57 53.36163 -2.26438 270 ft 1 kts 232°
2026-05-01 13:57 53.36108 -2.26549 252 ft 28 kts 229°
2026-05-01 13:57 53.36002 -2.26742 249 ft 18 kts 168°
2026-05-01 13:58 53.35948 -2.26717 249 ft 0 kts 171°
2026-05-01 13:59 53.35938 -2.26714 249 ft 0 kts 169°
2026-05-01 14:00 53.35931 -2.26712 249 ft 3 kts 170°
2026-05-01 14:01 53.35846 -2.26689 249 ft 35 kts 172°
2026-05-01 14:01 53.35554 -2.26674 245 ft 37 kts 218°
2026-05-01 14:01 53.35389 -2.27000 241 ft 37 kts 231°
2026-05-01 14:01 53.35298 -2.27187 239 ft 7 kts 219°
2026-05-01 14:02 53.35274 -2.27204 238 ft 0 kts 198°
2026-05-01 14:04 53.35273 -2.27204 238 ft 1 kts 199°
2026-05-01 14:05 53.35235 -2.27222 238 ft 7 kts 193°
2026-05-01 14:05 53.35192 -2.27238 238 ft 0 kts 193°
2026-05-01 14:06 53.35181 -2.27242 238 ft 4 kts 192°
2026-05-01 14:06 53.35143 -2.27253 238 ft 8 kts 189°
2026-05-01 14:07 53.35075 -2.27275 237 ft 12 kts 191°
2026-05-01 14:07 53.34997 -2.27356 235 ft 15 kts 230°
2026-05-01 14:07 53.34924 -2.27503 234 ft 12 kts 230°
2026-05-01 14:08 53.34318 -2.28761 247 ft 142 kts 233°
2026-05-01 14:08 53.33656 -2.30048 1113 ft 150 kts 230°
2026-05-01 14:08 53.32913 -2.31546 1973 ft 180 kts 231°
2026-05-01 14:08 53.32108 -2.33285 2872 ft 201 kts 231°
2026-05-01 14:09 53.31493 -2.35457 3772 ft 222 kts 259°
2026-05-01 14:09 53.31714 -2.38106 4820 ft 247 kts 282°
2026-05-01 14:09 53.32193 -2.40981 5785 ft 264 kts 277°
2026-05-01 14:09 53.32195 -2.44067 6912 ft 268 kts 260°
2026-05-01 14:10 53.32083 -2.47216 8076 ft 274 kts 263°
2026-05-01 14:10 53.32031 -2.50441 9199 ft 280 kts 263°
2026-05-01 14:10 53.31752 -2.53605 10321 ft 279 kts 245°
2026-05-01 14:10 53.30691 -2.56396 11027 ft 294 kts 220°
2026-05-01 14:11 53.28925 -2.58209 11844 ft 306 kts 198°
2026-05-01 14:11 53.24654 -2.57405 13676 ft 333 kts 150°
2026-05-01 14:11 53.22982 -2.54656 14749 ft 344 kts 130°
2026-05-01 14:12 53.21637 -2.51300 15890 ft 351 kts 126°
2026-05-01 14:12 53.20303 -2.47849 16969 ft 356 kts 126°
2026-05-01 14:12 53.18951 -2.44340 17978 ft 363 kts 125°
2026-05-01 14:12 53.17670 -2.40660 18845 ft 371 kts 122°
2026-05-01 14:13 53.16441 -2.36824 19142 ft 372 kts 120°
2026-05-01 14:13 53.15695 -2.34295 19131 ft 362 kts 119°
2026-05-01 14:13 53.13910 -2.29777 19146 ft 347 kts 137°
2026-05-01 14:13 53.11933 -2.27304 19141 ft 359 kts 154°
2026-05-01 14:14 53.09581 -2.25872 19164 ft 363 kts 166°
2026-05-01 14:14 53.07121 -2.24778 19185 ft 367 kts 166°
2026-05-01 14:14 53.04642 -2.23668 19201 ft 370 kts 166°
2026-05-01 14:14 53.02144 -2.22557 19196 ft 371 kts 166°
2026-05-01 14:15 52.99760 -2.21023 19198 ft 374 kts 156°
2026-05-01 14:15 52.97440 -2.19047 19137 ft 375 kts 154°
2026-05-01 14:15 52.95127 -2.17048 19140 ft 375 kts 155°
2026-05-01 14:15 52.92808 -2.15049 19136 ft 375 kts 154°
2026-05-01 14:16 52.90491 -2.13057 19134 ft 376 kts 155°
2026-05-01 14:16 52.88176 -2.11066 19143 ft 375 kts 155°
2026-05-01 14:16 52.85852 -2.09076 19134 ft 375 kts 155°
2026-05-01 14:16 52.83536 -2.07089 19134 ft 375 kts 155°
2026-05-01 14:17 52.81217 -2.05103 19143 ft 375 kts 155°
2026-05-01 14:17 52.78895 -2.03118 19143 ft 375 kts 155°
2026-05-01 14:17 52.76574 -2.01135 19141 ft 375 kts 155°
2026-05-01 14:17 52.74260 -1.99162 19131 ft 375 kts 155°
2026-05-01 14:18 52.71932 -1.97177 19138 ft 375 kts 155°
2026-05-01 14:18 52.69617 -1.95207 19136 ft 375 kts 155°
2026-05-01 14:18 52.67325 -1.93259 19131 ft 375 kts 155°
2026-05-01 14:18 52.65757 -1.91927 19144 ft 375 kts 155°
2026-05-01 14:19 52.62681 -1.89319 19147 ft 375 kts 155°
2026-05-01 14:19 52.60357 -1.87351 19154 ft 374 kts 155°
2026-05-01 14:19 52.58037 -1.85388 19144 ft 374 kts 155°
2026-05-01 14:19 52.55714 -1.83427 19111 ft 375 kts 155°
2026-05-01 14:20 52.53394 -1.81468 19112 ft 375 kts 155°
2026-05-01 14:20 52.48757 -1.77561 19148 ft 374 kts 155°
2026-05-01 14:20 52.46439 -1.75615 19150 ft 374 kts 155°
2026-05-01 14:21 52.44118 -1.73665 19131 ft 375 kts 155°
2026-05-01 14:21 52.41802 -1.71723 19108 ft 375 kts 155°
2026-05-01 14:21 52.40262 -1.70434 19140 ft 374 kts 155°
2026-05-01 14:22 52.35521 -1.64385 19137 ft 385 kts 126°
2026-05-01 14:22 52.34457 -1.60353 19143 ft 390 kts 111°
2026-05-01 14:22 52.33694 -1.56076 19141 ft 392 kts 110°
2026-05-01 14:22 52.33188 -1.53243 19138 ft 391 kts 110°
2026-05-01 14:23 52.32420 -1.48976 19131 ft 391 kts 110°
2026-05-01 14:23 52.31652 -1.44714 19123 ft 391 kts 110°
2026-05-01 14:23 52.30882 -1.40460 19133 ft 390 kts 110°
2026-05-01 14:23 52.30107 -1.36214 19134 ft 389 kts 112°
2026-05-01 14:24 52.28944 -1.32278 19131 ft 382 kts 128°
2026-05-01 14:24 52.27277 -1.28914 19139 ft 380 kts 133°
2026-05-01 14:24 52.25580 -1.25608 19132 ft 380 kts 133°
2026-05-01 14:24 52.23885 -1.22299 19128 ft 380 kts 133°
2026-05-01 14:25 52.22187 -1.18984 19130 ft 380 kts 133°
2026-05-01 14:25 52.20493 -1.15680 19133 ft 380 kts 133°
2026-05-01 14:25 52.18795 -1.12375 19131 ft 380 kts 133°
2026-05-01 14:25 52.17097 -1.09070 19128 ft 380 kts 133°
2026-05-01 14:26 52.15391 -1.05759 19129 ft 380 kts 133°
2026-05-01 14:26 52.13098 -0.98003 19137 ft 395 kts 100°
2026-05-01 14:26 52.13031 -0.93509 19153 ft 398 kts 93°
2026-05-01 14:27 52.13074 -0.88993 19133 ft 398 kts 93°
2026-05-01 14:27 52.13103 -0.84489 19129 ft 398 kts 94°
2026-05-01 14:27 52.13129 -0.80022 19125 ft 398 kts 94°
2026-05-01 14:28 52.13174 -0.71012 19129 ft 398 kts 94°
2026-05-01 14:28 52.13193 -0.66513 19132 ft 398 kts 94°
2026-05-01 14:28 52.13210 -0.62015 19127 ft 397 kts 94°
2026-05-01 14:28 52.13225 -0.57516 19128 ft 397 kts 94°
2026-05-01 14:29 52.13240 -0.53022 19130 ft 397 kts 94°
2026-05-01 14:29 52.13250 -0.48521 19132 ft 397 kts 94°
2026-05-01 14:30 52.13273 -0.35028 19130 ft 397 kts 94°
2026-05-01 14:30 52.13279 -0.30589 19130 ft 397 kts 94°
2026-05-01 14:30 52.13281 -0.26099 19126 ft 397 kts 94°
2026-05-01 14:31 52.13281 -0.17109 19151 ft 397 kts 94°
2026-05-01 14:31 52.13278 -0.12616 19145 ft 397 kts 94°
2026-05-01 14:31 52.13274 -0.08118 19149 ft 397 kts 95°
2026-05-01 14:31 52.13268 -0.03618 19151 ft 397 kts 95°
2026-05-01 14:32 52.13261 0.00881 19150 ft 397 kts 95°
2026-05-01 14:32 52.13252 0.05385 19157 ft 397 kts 95°
2026-05-01 14:32 52.13242 0.09876 19158 ft 397 kts 95°
2026-05-01 14:32 52.13209 0.14367 19159 ft 395 kts 98°
2026-05-01 14:33 52.12918 0.18804 19161 ft 393 kts 102°
2026-05-01 14:33 52.12552 0.23217 19159 ft 393 kts 102°
2026-05-01 14:33 52.12180 0.27621 19158 ft 393 kts 102°
2026-05-01 14:33 52.11815 0.31968 19155 ft 387 kts 102°
2026-05-01 14:34 52.11461 0.36263 19152 ft 381 kts 102°
2026-05-01 14:34 52.11104 0.40540 19156 ft 381 kts 102°
2026-05-01 14:34 52.10746 0.44803 19162 ft 380 kts 102°
2026-05-01 14:34 52.10385 0.49084 18967 ft 380 kts 102°
2026-05-01 14:35 52.09973 0.53320 18762 ft 378 kts 105°
2026-05-01 14:35 52.09490 0.57513 18499 ft 376 kts 105°
2026-05-01 14:35 52.09009 0.61693 18218 ft 374 kts 105°
2026-05-01 14:35 52.08540 0.65840 17948 ft 372 kts 105°
2026-05-01 14:36 52.08075 0.69988 17688 ft 370 kts 105°
2026-05-01 14:36 52.07637 0.73948 17418 ft 351 kts 105°
2026-05-01 14:36 52.07214 0.77760 17159 ft 336 kts 105°
2026-05-01 14:36 52.06804 0.81435 16901 ft 325 kts 105°
2026-05-01 14:37 52.06168 0.84874 16638 ft 312 kts 119°
2026-05-01 14:37 52.05183 0.87988 16402 ft 307 kts 123°
2026-05-01 14:37 52.04174 0.91035 16159 ft 306 kts 122°
2026-05-01 14:37 52.03175 0.94077 15920 ft 304 kts 122°
2026-05-01 14:38 52.02375 0.96512 15718 ft 303 kts 122°
2026-05-01 14:38 52.01379 0.99528 15466 ft 302 kts 122°
2026-05-01 14:38 52.00391 1.02533 15221 ft 301 kts 122°
2026-05-01 14:38 51.99409 1.05519 15156 ft 295 kts 122°
2026-05-01 14:39 51.98434 1.08479 15084 ft 302 kts 123°
2026-05-01 14:39 51.97430 1.11517 14643 ft 304 kts 122°
2026-05-01 14:39 51.96450 1.14488 14230 ft 301 kts 122°
2026-05-01 14:39 51.95468 1.17463 13782 ft 298 kts 122°
2026-05-01 14:40 51.94499 1.20403 13399 ft 293 kts 122°
2026-05-01 14:40 51.93535 1.23320 13012 ft 292 kts 122°
2026-05-01 14:40 51.92578 1.26213 12640 ft 291 kts 122°
2026-05-01 14:40 51.91619 1.29105 12277 ft 290 kts 122°
2026-05-01 14:41 51.90389 1.31609 11928 ft 282 kts 146°
2026-05-01 14:41 51.88685 1.33000 11634 ft 277 kts 162°
2026-05-01 14:41 51.86867 1.34071 11294 ft 278 kts 161°
2026-05-01 14:41 51.85060 1.35207 10980 ft 277 kts 161°
2026-05-01 14:42 51.83265 1.36350 10665 ft 277 kts 160°
2026-05-01 14:42 51.81480 1.37500 10362 ft 276 kts 160°
2026-05-01 14:42 51.79711 1.38650 10055 ft 271 kts 160°
2026-05-01 14:42 51.77994 1.39775 9736 ft 261 kts 160°
2026-05-01 14:43 51.76341 1.40860 9471 ft 252 kts 160°
2026-05-01 14:43 51.74760 1.41896 9330 ft 239 kts 162°
2026-05-01 14:43 51.73170 1.42165 9249 ft 226 kts 191°
2026-05-01 14:43 51.71713 1.41291 9224 ft 224 kts 203°
2026-05-01 14:44 51.70284 1.40263 9186 ft 223 kts 203°
2026-05-01 14:44 51.67446 1.38239 9191 ft 224 kts 203°
2026-05-01 14:44 51.66015 1.37217 9188 ft 225 kts 203°
2026-05-01 14:45 51.64582 1.36192 9189 ft 225 kts 203°
2026-05-01 14:45 51.61719 1.34141 9188 ft 225 kts 203°
2026-05-01 14:45 51.60301 1.33126 9073 ft 229 kts 203°
2026-05-01 14:46 51.58941 1.31818 8918 ft 227 kts 224°
2026-05-01 14:46 51.57493 1.27293 8764 ft 230 kts 243°
2026-05-01 14:46 51.56835 1.24926 8560 ft 231 kts 243°
2026-05-01 14:47 51.56181 1.22577 8386 ft 229 kts 243°
2026-05-01 14:47 51.55524 1.20241 8205 ft 228 kts 242°
2026-05-01 14:47 51.54873 1.17926 8038 ft 227 kts 242°
2026-05-01 14:48 51.53571 1.13325 7709 ft 225 kts 242°
2026-05-01 14:48 51.52927 1.11065 7518 ft 225 kts 242°
2026-05-01 14:48 51.51633 1.06525 7192 ft 223 kts 242°
2026-05-01 14:49 51.50343 1.02020 6861 ft 221 kts 242°
2026-05-01 14:49 51.49047 0.97507 6363 ft 225 kts 242°
2026-05-01 14:50 51.48197 0.94546 6166 ft 216 kts 242°
2026-05-01 14:50 51.47582 0.88259 6089 ft 227 kts 270°
2026-05-01 14:51 51.47695 0.85738 6020 ft 225 kts 269°
2026-05-01 14:51 51.47903 0.80703 5871 ft 226 kts 269°
2026-05-01 14:52 51.48098 0.75701 5808 ft 224 kts 269°
2026-05-01 14:52 51.48195 0.73190 5720 ft 226 kts 269°
2026-05-01 14:52 51.48385 0.68155 5492 ft 224 kts 269°
2026-05-01 14:53 51.48475 0.65662 5383 ft 224 kts 269°
2026-05-01 14:53 51.48567 0.63170 5275 ft 224 kts 269°
2026-05-01 14:53 51.48657 0.60716 5169 ft 222 kts 269°
2026-05-01 14:53 51.48747 0.58245 5057 ft 222 kts 269°
2026-05-01 14:54 51.48835 0.55753 4826 ft 224 kts 269°
2026-05-01 14:54 51.48923 0.53266 4589 ft 223 kts 269°
2026-05-01 14:54 51.49012 0.50792 4391 ft 221 kts 269°
2026-05-01 14:54 51.49098 0.48339 4194 ft 219 kts 269°
2026-05-01 14:55 51.48840 0.45995 3956 ft 212 kts 239°
2026-05-01 14:55 51.47829 0.44360 3738 ft 205 kts 211°
2026-05-01 14:55 51.47038 0.42571 3439 ft 206 kts 253°
2026-05-01 14:55 51.46735 0.40327 3271 ft 205 kts 256°